SHIJIAN-16 (SJ-16)

Last updated on Thu Oct 30 2025 00:02:15 GMT+0000 (Coordinated Universal Time)

1 39358U 13057A 25302.54399281 .00001780 00000+0 17912-3 0 9995 2 39358 74.9713 73.2600 0016003 69.4758 290.8146 14.91738928651945
UTC large
Height (km)
Speed (km/s)
/
Latitude / Longitude
Inclination (degrees)
Orbital Period (minutes)
Azimuth
Elevation
Range (km)
Doppler Factor

Next 0 passes for location: London (51.5072 / 0.1276)

Sorry there are no passes over London.